Location: Unspecified
(43.4680°N, 87.1740°E)
Time: 21:20:32
(UTC+00:00)

Cosmos 2227 Rocket - Pass Details

Date: 17 April 2021
Orbit: 840 x 844 km, 71.0° (Epoch: 12 May)

Event Time Altitude Azimuth Distance (km) Brightness Sun altitude
Exits shadow 15:08:09 31° 80° (E) 1,452 3.1 -21.8°
Drops below altitude 10° 15:11:59 10° 42° (NE) 2,469 4.6 -22.3°
Sets 15:14:37 0° 33° (NNE) 3,408 5.5 -22.6°
